Prévision chaque heure sur Domdidier


  Conditions Température Point de rosée PrécipitationProbabilité d'orage Vent Pression UV Index Couverture nuageuse Visibilité
 05:47     21:10   La longueur du jour: 15:23 Aujourd'hui
06:00 6 °
Sensation de: 2.8°
4.5°   0%
1
Max: 5 km/h
1019.7 hPa   2% 20 km
07:00 8 °
Sensation de: 3.8°
5.0°   0%
2
Max: 5 km/h
1019.4 hPa   3% 20 km
08:00 10 °
Sensation de: 7.0°
5.6°   0%
2
Max: 8 km/h
1019.0 hPa 6% 20 km
09:00 13 °
Sensation de: 9.7°
6.2°   0%
3
Max: 14 km/h
1019.0 hPa 13% 20 km
10:00 16 °
Sensation de: 12.5°
6.5°   0%
4
Max: 20 km/h
1018.6 hPa 23% 20 km
11:00 18 °
Sensation de: 14.8°
6.8°   0%
5
Max: 22 km/h
1018.2 hPa 36% 20 km
12:00 20 °
Sensation de: 17.1°
7.0°   0%
5
Max: 22 km/h
1017.8 hPa 39% 20 km
13:00 21 °
Sensation de: 18.5°
7.1°   0%
5
Max: 22 km/h
1017.4 hPa 41% 21 km
14:00 22 °
Sensation de: 19.4°
7.2°   0%
5
Max: 22 km/h
1016.6 hPa 43% 21 km
15:00 23 °
Sensation de: 19.3°
7.3°   0%
6
Max: 23 km/h
1016.0 hPa 43% 21 km
16:00 23 °
Sensation de: 19.9°
7.3°   0%
6
Max: 23 km/h
1015.4 hPa 44% 22 km
17:00 23 °
Sensation de: 20.0°
7.4°   <20%
6
Max: 23 km/h
1015.0 hPa 44% 22 km
18:00 23 °
Sensation de: 20.7°
7.4°   <20%
5
Max: 22 km/h
1015.0 hPa 15% 22 km
19:00 22 °
Sensation de: 19.6°
7.5°   <20%
5
Max: 22 km/h
1015.0 hPa 43% 22 km
20:00 20 °
Sensation de: 18.3°
7.5°   0%
4
Max: 20 km/h
1015.4 hPa   39% 22 km
21:00 18 °
Sensation de: 16.0°
7.6°   0%
3
Max: 16 km/h
1016.0 hPa   17% 22 km
22:00 15 °
Sensation de: 12.8°
7.7°   0%
3
Max: 11 km/h
1016.6 hPa   19% 22 km
23:00 14 °
Sensation de: 11.2°
7.8°   0%
2
Max: 8 km/h
1017.0 hPa   21% 21 km
 05:46     21:11   La longueur du jour: 15:25 Demain
00:00 12 °
Sensation de: 9.3°
7.7°   0%
2
Max: 5 km/h
1017.0 hPa   24% 21 km
01:00 11 °
Sensation de: 8.5°
7.4°   0%
1
Max: 5 km/h
1017.0 hPa   26% 20 km
02:00 10 °
Sensation de: 7.5°
7.0°   0%
1
Max: 5 km/h
1016.8 hPa   36% 20 km
03:00 10 °
Sensation de: 6.7°
6.6°   0%
1
Max: 5 km/h
1016.4 hPa   50% 20 km
04:00 9 °
Sensation de: 6.6°
6.2°   0%
0
Max: 5 km/h
1016.0 hPa   62% 19 km
05:00 8 °
Sensation de: 6.0°
5.8°   0%
0
Max: 5 km/h
1016.0 hPa   68% 19 km
06:00 8 °
Sensation de: 5.5°
5.5°   0%
0
Max: 5 km/h
1015.6 hPa   70% 19 km
07:00 9 °
Sensation de: 6.9°
6.0°   0%
0
Max: 5 km/h
1015.2 hPa   73% 19 km
08:00 12 °
Sensation de: 9.9°
6.8°   0%
0
Max: 5 km/h
1015.0 hPa 77% 19 km
09:00 14 °
Sensation de: 12.5°
7.5°   0%
1
Max: 6 km/h
1015.0 hPa 77% 19 km
10:00 16 °
Sensation de: 14.6°
7.9°   0%
2
Max: 12 km/h
1015.0 hPa 77% 19 km
11:00 18 °
Sensation de: 16.9°
8.2°   <20%
3
Max: 16 km/h
1014.8 hPa 77% 19 km
12:00 21 °
Sensation de: 19.1°
8.4°   <20%
4
Max: 20 km/h
1014.4 hPa 75% 19 km
13:00 22 °
Sensation de: 20.5°
8.5°   20-40%
5
Max: 22 km/h
1013.6 hPa 72% 20 km
14:00 23 °
Sensation de: 20.7°
8.6°   40-60%
6
Max: 23 km/h
1013.0 hPa 81% 20 km
15:00 24 °
Sensation de: 20.4°
8.5°   40-60%
7
Max: 24 km/h
1012.4 hPa 81% 21 km
16:00 24 °
Sensation de: 21.0°
8.7°   40-60%
7
Max: 25 km/h
1012.0 hPa 80% 21 km
17:00 24 °
Sensation de: 20.4°
8.7°   20-40%
8
Max: 26 km/h
1012.0 hPa 61% 22 km
18:00 24 °
Sensation de: 20.9°
8.6°   40-60%
7
Max: 26 km/h
1012.0 hPa 80% 21 km
19:00 22 °
Sensation de: 20.3°
9.3°   40-60%
6
Max: 23 km/h
1012.0 hPa 81% 21 km
20:00 21 °
Sensation de: 19.0°
9.2°   20-40%
5
Max: 21 km/h
1012.4 hPa   72% 22 km
21:00 19 °
Sensation de: 17.3°
9.2°   20-40%
4
Max: 17 km/h
1013.0 hPa   90% 22 km
22:00 18 °
Sensation de: 16.3°
9.3°   20-40%
3
Max: 14 km/h
1013.6 hPa   93% 21 km
23:00 16 °
Sensation de: 14.4°
9.4°   <20%
3
Max: 11 km/h
1014.0 hPa   96% 21 km
 05:45     21:12   La longueur du jour: 15:27 Samedi 25 Mai
00:00 15 °
Sensation de: 13.6°
9.4°   <20%
2
Max: 10 km/h
1014.0 hPa   95% 21 km
01:00 14 °
Sensation de: 12.3°
9.5°   <20%
2
Max: 8 km/h
1014.0 hPa   93% 20 km
02:00 13 °
Sensation de: 11.3°
9.4°   <20%
2
Max: 7 km/h
1014.0 hPa   90% 20 km
03:00 13 °
Sensation de: 11.0°
9.3°   <20%
1
Max: 6 km/h
1014.0 hPa   88% 19 km
04:00 12 °
Sensation de: 10.3°
9.0°   0%
1
Max: 5 km/h
1014.0 hPa   86% 19 km
05:00 12 °
Sensation de: 9.5°
8.7°   0%
1
Max: 5 km/h
1014.0 hPa   83% 19 km